Weather Roundup
Issued by NWS Springfield, MO

Home | Current Version | Previous Version | Text Only | Print | Product List | Glossary On
Versions: 1 2 3 4 5 6 7 8 9 10 11 12 13 14 15 16 17 18 19 20 21 22 23 24 25 26 27 28 29 30 31 32 33 34 35 36 37 38 39 40 41 42 43 44 45 46 47 48 49 50
000
NZUS99 KSGF 231457
HRRSGF

HOURLY WEATHER
NATIONAL WEATHER SERVICE SPRINGFIELD MO
1000 AM CDT THU MAR 23 2017

......SGF CWA......

CITY           SKY/WX    TMP DP  RH WIND       PRES   REMARKS
SPRINGFIELD    CLOUDY    54  32  43 S22G31    30.13S
JOPLIN         MOSUNNY   60  43  53 S18G24    30.09S
WEST PLAINS    CLOUDY    50  28  42 S8        30.25S
ROLLA          CLOUDY    50  25  37 S17G24    30.18F
BRANSON        PTSUNNY   50  32  50 SE9       30.20S

......SURROUNDING SGF CWA......

CITY           SKY/WX    TMP DP  RH WIND       PRES   REMARKS
CHANUTE        MOSUNNY   61  45  55 S22G31    30.04F
PARSONS        MOSUNNY   63  46  54 S15G23    30.06S
COFFEYVILLE    PTSUNNY   61  46  57 SE15G24   30.05F
EMPORIA        SUNNY     60  48  64 S23G32    29.97F
HARRISON AR    SUNNY     52  35  52 SE9       30.20S

......KANSAS AND MISSOURI......

CITY           SKY/WX    TMP DP  RH WIND       PRES   REMARKS
KANSAS CTY INT PTSUNNY   56  37  49 S20       30.04F
SEDALIA        MOSUNNY   57  30  35 S15       30.12F
ST JOSEPH      PTSUNNY   55  35  47 SE16      30.03F
ST LOUIS       LGT RAIN  40  33  76 E15       30.30S WCI  32
WICHITA        CLOUDY    59  51  75 S23       29.92F
TOPEKA         MOSUNNY   59  43  55 SE16G24   30.00F
OLATHE         PTSUNNY   54  38  54 S14       30.05F

......TENNESSEE......

CITY           SKY/WX    TMP DP  RH WIND       PRES   REMARKS
MEMPHIS        MOSUNNY   59  26  28 SE8       30.28S
NASHVILLE      PTSUNNY   50  27  40 SE5       30.34S

......ARKANSAS.......

CITY           SKY/WX    TMP DP  RH WIND       PRES   REMARKS
FAYETTEVILLE   CLOUDY    60  47  61 SE10      30.14S
FT SMITH       CLOUDY    56  36  47 E15       30.16S
LITTLE ROCK    MOSUNNY   59  39  47 SE9       30.23S

......OKLAHOMA.......

CITY           SKY/WX    TMP DP  RH WIND       PRES   REMARKS
TULSA          PTSUNNY   58  44  60 S15G25    30.05S
PONCA CITY     MOSUNNY   59  49  69 SE24G32   29.96F
MCALESTER      MOSUNNY   66  53  63 S14G21    30.07S
OKLAHOMA CITY  CLOUDY    61  57  87 S17G25    29.97F

......IOWA............

CITY           SKY/WX    TMP DP  RH WIND       PRES   REMARKS
DES MOINES     NOT AVBL
QUAD CITIES    CLOUDY    39  23  52 SE12      30.27F WCI  32

......ILLINOIS........

CITY           SKY/WX    TMP DP  RH WIND       PRES   REMARKS
QUINCY         LGT RAIN  37  33  85 SE16      30.24F WCI  28
CHICAGO        CLOUDY    36  19  50 SE14      30.39F WCI  27




USA.gov is the U.S. government's official web portal to all federal, state and local government web resources and services.